EDT,Max TemperatureF,Mean TemperatureF,Min TemperatureF,Max Dew PointF,MeanDew PointF,Min DewpointF,Max Humidity, Mean Humidity, Min Humidity, Max Sea Level PressureIn, Mean Sea Level PressureIn, Min Sea Level PressureIn, Max VisibilityMiles, Mean VisibilityMiles, Min VisibilityMiles, Max Wind SpeedMPH, Mean Wind SpeedMPH, Max Gust SpeedMPH,PrecipitationIn, CloudCover, Events, WindDirDegrees
2012-9-1,84,78,71,74,71,68,94,82,69,30.13,30.06,30.02,10,10,9,10,1,15,0.04,2,Rain,226
2012-9-2,83,78,72,75,72,70,94,82,69,30.05,30.01,29.97,10,8,3,13,3,16,0.08,5,Rain,196
2012-9-3,80,76,72,73,70,69,93,84,74,30.08,30.02,29.98,10,9,3,12,3,16,0.08,7,Rain-Thunderstorm,163
2012-9-4,85,78,70,73,71,68,93,81,69,30.02,29.97,29.88,10,8,2,17,7,24,0.11,6,Rain,187
2012-9-5,86,79,72,75,72,70,94,82,70,29.87,29.84,29.81,10,9,6,13,5,16,T,4,,196
2012-9-6,83,76,69,72,69,65,93,76,58,29.95,29.89,29.82,10,5,0,10,2,14,0.47,4,Fog-Rain-Thunderstorm,236
2012-9-7,88,77,66,70,67,64,93,74,55,29.96,29.91,29.84,10,8,1,12,4,21,0.00,0,,188
2012-9-8,87,76,64,70,66,59,93,77,61,29.86,29.75,29.63,10,9,2,20,6,30,0.14,4,Rain,200
2012-9-9,77,66,55,59,53,47,93,65,36,29.99,29.90,29.85,10,10,10,8,2,14,0.00,2,,327
2012-9-10,76,65,53,53,48,43,93,62,31,30.19,30.09,30.00,10,10,10,15,4,24,0.00,0,,346
2012-9-11,77,63,48,55,49,46,93,66,38,30.32,30.27,30.20,10,10,10,7,1,14,0.00,0,,149
2012-9-12,79,65,50,58,54,48,96,69,42,30.37,30.33,30.30,10,9,2,9,2,13,0.00,0,,157
2012-9-13,79,66,52,58,53,47,100,66,32,30.38,30.32,30.27,10,9,5,12,2,25,0.00,0,,180
2012-9-14,79,65,51,61,56,50,96,72,48,30.29,30.21,30.13,10,10,9,10,3,14,0.00,0,,213
2012-9-15,77,66,54,60,51,43,93,62,31,30.25,30.17,30.12,10,10,8,14,3,16,0.00,1,,354
2012-9-16,73,63,52,56,53,50,93,70,47,30.18,30.14,30.08,10,10,10,10,2,14,0.00,4,,193
2012-9-17,68,60,52,64,60,52,100,88,76,30.12,30.05,29.95,10,6,2,9,2,12,0.12,7,Rain,172
2012-9-18,75,70,64,72,66,61,100,91,81,29.94,29.74,29.62,10,6,2,26,12,37,1.09,7,Rain-Thunderstorm,194
2012-9-19,71,61,51,55,47,42,89,62,35,30.17,30.05,29.86,10,10,10,13,4,21,0.00,2,,346
2012-9-20,73,61,49,57,52,46,93,71,49,30.19,30.13,30.06,10,10,10,10,2,15,0.00,2,,177
2012-9-21,81,67,52,61,57,51,100,71,42,30.08,30.02,29.95,10,7,0,10,3,23,0.00,1,Fog,203
2012-9-22,84,73,61,63,58,44,97,69,40,29.95,29.88,29.81,10,10,7,16,8,20,0.00,1,,207
2012-9-23,69,60,50,48,40,36,77,53,28,30.17,30.09,29.94,10,10,10,10,3,20,0.00,2,,340
2012-9-24,70,58,45,49,42,35,89,60,31,30.25,30.18,30.14,10,10,10,12,3,18,0.00,1,,230
2012-9-25,75,59,43,53,47,41,92,68,44,30.19,30.16,30.09,10,10,10,15,7,24,T,1,,213
2012-9-26,84,70,55,63,59,54,93,70,47,30.14,30.11,30.07,10,10,10,17,8,24,0.00,0,,195
2012-9-27,84,72,60,66,63,59,97,73,48,30.17,30.10,30.05,10,10,6,13,5,30,0.01,2,Rain-Thunderstorm,119
2012-9-28,77,69,60,67,63,57,100,82,64,30.10,30.04,29.96,10,6,0,16,2,20,0.15,7,Fog-Rain,53
2012-9-29,72,65,58,58,54,48,93,70,47,30.04,29.98,29.90,10,6,2,8,1,22,0.01,7,Rain,72
2012-9-30,73,61,49,52,49,44,93,66,38,29.93,29.88,29.81,10,10,8,14,3,29,0.00,3,,211